#timestamp,LO_Frequency,Hit,StdDev 
1633449615.2,286046998.2,P
1633449635.0,286047001.0,N
1633449635.9,286047001.0,N
1633449655.8,286046998.3,N
1633449675.6,286046998.2,N
1633449695.4,286046998.6,N
1633449715.3,286047001.1,N
1633449735.1,286047000.1,N
1633449736.0,286047000.1,N
1633449755.8,286046998.5,N
1633449775.7,286047000.5,N
1633449795.5,286046999.8,N
1633449815.3,286047000.3,N
1633449835.2,286047000.3,N
1633449855.9,286046999.8,N
1633449875.7,286046999.8,N
1633449895.6,286047001.6,N
1633449915.4,286047001.3,N
1633449935.2,286047001.8,N
1633449955.1,286047001.3,N
1633449956.0,286047001.3,N
1633449975.8,286047001.4,N
1633449995.6,286047001.6,N
1633450015.5,286047002.4,N
1633450035.3,286047002.3,N
1633450055.1,286047002.0,N
1633450075.9,286047001.5,N
1633450095.7,286047002.2,N
1633450115.5,286047002.8,N
1633450135.4,286047000.3,N
1633450185.2,286046999.8,E
1633450195.1,286047002.8,N
1633450215.9,286046999.8,P
1633450235.7,286047002.0,N
1633450255.5,286047002.5,N
1633450275.4,286047002.5,N
1633450295.2,286047004.2,Y
1633450315.0,286047001.9,P
1633450315.9,286047001.9,P
1633450335.8,286046999.7,P
1633450355.6,286047000.2,N
1633450375.4,286047002.7,N
1633450395.3,286047002.2,N
1633450415.1,286047001.1,N
1633450435.8,286047001.1,N
1633450455.7,286046998.6,N
1633450475.5,286046998.3,N
1633450495.3,286046999.1,N
1633450515.2,286046996.9,N
1633450535.0,286046999.1,N
1633450535.9,286046999.1,N
1633450555.7,286046998.5,N
1633450575.6,286046999.0,N
1633450595.4,286046997.8,N
1633450615.2,286046995.2,N
1633450635.1,286046996.7,N
1633450636.0,286046996.7,N
1633450655.8,286046996.9,N
1633450675.6,286046999.3,N
1633450695.5,286046996.6,N
1633450715.3,286046996.8,N
1633450735.1,286046997.6,N
1633450755.9,286046994.9,N
1633450775.7,286046994.9,N
1633450795.5,286046997.7,N
1633450815.4,286046997.6,N
1633450835.2,286046997.8,N
1633450855.0,286046995.6,N
1633450855.9,286046995.6,N
1633450875.8,286046995.5,N
1633450895.6,286046996.0,N
1633450915.4,286046996.3,N
1633450935.3,286046993.3,Y
1633450955.1,286046997.4,P
1633450975.8,286046997.3,P
1633450995.7,286046997.8,P
1633451015.5,286046996.2,Y
1633451035.3,286046997.2,P
1633451055.2,286046997.0,P
1633451075.0,286046996.9,P
1633451075.9,286046996.9,Y
1633451095.7,286047000.2,P
1633451115.6,286047001.0,N
1633451135.4,286046998.7,N
1633451155.2,286046999.0,N
1633451175.1,286046998.5,N
1633451176.0,286046998.5,N
1633451195.8,286047001.1,N
1633451215.6,286046998.2,N
1633451235.5,286046999.0,N
1633451255.3,286046999.3,N
1633451275.1,286046999.6,N
1633451295.9,286046996.6,Y
1633451315.7,286046999.1,P
1633451335.5,286046997.6,P
1633451355.4,286046997.7,P
1633451375.2,286046995.2,Y
1633451395.0,286046999.4,P
1633451395.9,286046999.4,N
1633451415.8,286046999.6,N
1633451435.6,286046996.6,Y
1633451455.4,286046998.3,P
1633451475.3,286046998.7,N
1633451495.1,286046996.5,P
1633451515.9,286046996.6,Y
1633451535.7,286047000.7,P
1633451555.5,286046998.9,N
1633451575.4,286046997.3,N
1633451595.2,286046997.2,N
1633451615.0,286046999.2,N
1633451615.9,286046999.2,N
1633451635.8,286046998.6,N
1633451655.6,286046999.4,N
1633451675.4,286046999.1,N
1633451695.3,286046996.9,Y
1633451715.1,286046999.4,P
1633451716.0,286046999.4,N
1633451735.8,286046997.2,P
1633451755.7,286046996.7,Y
1633451775.5,286046999.0,P
1633451795.3,286046997.2,P
1633451815.2,286046995.4,P
1633451835.9,286046997.8,N
1633451855.7,286046994.9,Y
1633451875.6,286047000.6,P
1633451895.4,286046998.3,N
1633451915.2,286046998.7,N
1633451935.1,286046998.6,N
1633451936.0,286046998.6,N
1633451955.8,286046998.1,N
1633451975.6,286046999.6,N
1633451995.5,286046997.1,Y
1633452015.3,286046999.4,P
1633452035.1,286046999.1,N
1633452055.9,286046997.0,P
1633452075.7,286046996.6,Y
1633452095.5,286046999.4,P
1633452115.4,286046998.8,N
1633452135.2,286046997.1,P
1633452155.0,286046997.6,N
1633452155.9,286046997.6,N
1633452175.8,286046997.5,Y
1633452195.6,286046996.5,P
1633452215.4,286046996.7,P
1633452235.3,286046996.8,P
1633452255.1,286046997.4,Y
1633452275.8,286047000.8,P
1633452295.7,286047000.7,N
1633452315.5,286047000.3,N
1633452335.3,286047000.6,N
1633452355.2,286047000.1,N
1633452375.9,286047000.0,N
1633452395.7,286047000.9,N
1633452415.6,286046998.1,N
1633452435.4,286046999.4,N
1633452455.2,286047000.8,N
1633452475.1,286046998.8,N
1633452476.0,286046998.8,N
1633452495.8,286046998.2,N
1633452545.7,286046997.2,E
1633452555.6,286047000.8,N
1633452575.4,286047002.3,P
1633452595.2,286047004.0,P
1633452615.1,286047001.3,N
1633452616.0,286047001.3,N
1633452635.8,286047002.1,N
1633452655.6,286047002.2,N
1633452675.5,286047002.7,N
1633452695.3,286046998.5,N
1633452715.1,286047002.5,N
1633452735.9,286047002.3,N
1633452755.7,286047002.4,N
1633452775.5,286047001.9,N
1633452795.4,286047001.6,N
1633452815.2,286047002.6,N
1633452835.0,286047000.1,N
1633452835.9,286047000.1,N
1633452855.8,286046999.8,N
1633452875.6,286047001.1,N
1633452895.4,286046998.6,N
1633452915.3,286046998.4,N
1633452935.1,286046998.8,N
1633452955.8,286046999.1,N
1633452975.7,286046998.9,N
1633452995.5,286046999.2,N
1633453015.3,286046996.5,N
1633453035.2,286046997.0,N
1633453055.0,286046996.6,N
1633453055.9,286046996.6,N
1633453075.8,286046998.9,N
1633453095.6,286047000.4,N
1633453115.4,286046996.6,N
1633453135.2,286046997.7,N
1633453155.1,286046998.0,N
1633453156.0,286046998.0,N
1633453175.8,286046998.0,N
1633453195.7,286046997.4,N
